This is the latest recevied weather packets stored in our database for station/object M0JUI-1. If no packets are shown the sender has not sent any weather packets the latest 10 day(s).
| Time | Temp. | Humidity | Pressure | Rain* | Wind** | Luminosity | Snow |
|---|---|---|---|---|---|---|---|
| 1777315998 | 11.67° C | 6% | 1026 hPa | 0 mm | - | 4 W/m² | - |
| 1777315698 | 11.67° C | 11% | 1026.1 hPa | 0 mm | - | 5 W/m² | - |
| 1777315399 | 12.22° C | 14% | 1026 hPa | 0 mm | - | 11 W/m² | - |
| 1777315098 | 12.78° C | 13% | 1026 hPa | 0 mm | - | 14 W/m² | - |
| 1777314799 | 12.78° C | 8% | 1025.8 hPa | 0 mm | - | 13 W/m² | - |
| 1777314499 | 12.78° C | 4% | 1025.8 hPa | 0 mm | - | 15 W/m² | - |
| 1777314198 | 12.78° C | 2% | 1025.7 hPa | 0 mm | - | 17 W/m² | - |
| 1777313898 | 12.78° C | 1% | 1025.8 hPa | 0 mm | - | 28 W/m² | - |
| 1777313598 | 13.33° C | 1% | 1025.7 hPa | 0 mm | - | 50 W/m² | - |
| 1777313298 | 12.78° C | 1% | 1025.8 hPa | 0 mm | - | 40 W/m² | - |
| 1777312998 | 13.33° C | 1% | 1025.7 hPa | 0 mm | - | 45 W/m² | - |
| 1777312703 | 13.33° C | 1% | 1025.8 hPa | 0 mm | - | 70 W/m² | - |
| 1777312398 | 13.33° C | 1% | 1025.6 hPa | 0 mm | - | 83 W/m² | - |
| 1777312087 | 13.33° C | 1% | 1025.9 hPa | 0 mm | - | 111 W/m² | - |
| 1777311786 | 13.89° C | 1% | 1025.7 hPa | 0 mm | - | 85 W/m² | - |
| 1777311486 | 14.44° C | 1% | 1025.6 hPa | 0 mm | - | 57 W/m² | - |
| 1777311175 | 15° C | 99% | 1025.4 hPa | 0 mm | - | 82 W/m² | - |
| 1777310874 | 15° C | 99% | 1025.4 hPa | 0 mm | - | 144 W/m² | - |
| 1777310574 | 15° C | 99% | 1025.4 hPa | 0 mm | - | 97 W/m² | - |
| 1777310266 | 15° C | 99% | 1025.1 hPa | 0 mm | - | 134 W/m² | - |
| 1777309963 | 15° C | 99% | 1025.3 hPa | 0 mm | - | 151 W/m² | - |
| 1777309663 | 15° C | 99% | 1025.4 hPa | 0 mm | - | 75 W/m² | - |
| 1777309351 | 15.56° C | 99% | 1025.4 hPa | 0 mm | - | 92 W/m² | - |
| 1777309050 | 15.56° C | 99% | 1025.1 hPa | 0 mm | - | 151 W/m² | - |
| 1777308750 | 15.56° C | 99% | 1025.1 hPa | 0 mm | - | 83 W/m² | - |
* Rain latest hour (hover to see other rain measurements)
** Current wind speed in m/s (hover to see current wind gust speed)